Theta_e
283 284 284 285 285 285 285 285 284 284 284 285 285 285 283 283 280 279 276 276 276 277 278 277 278 280 281 281 281 281 281 282 284 283 284 283 282 286 289 291 293 296 296 297 297 297 297 297 297 297 298 299 300 300 300 300 300 300 299 299 299 299 301 304 303 303 303 303 303 302 302 303 301 301
281 282 283 284 284 285 285 285 285 284 284 284 284 284 284 284 282 281 279 278 278 276 278 279 277 278 280 281 281 281 281 284 284 282 283 283 283 285 288 290 292 293 295 296 296 296 296 297 296 296 296 297 297 297 298 299 300 300 299 298 297 298 297 297 299 300 300 300 300 299 299 300 301 300
281 280 280 282 282 283 283 284 285 285 285 284 284 284 284 283 283 282 281 279 280 279 276 277 278 278 279 280 281 281 281 283 284 282 281 282 284 286 286 288 290 292 294 295 296 296 296 296 296 296 296 296 296 296 296 297 298 299 299 298 297 296 295 296 297 296 297 297 298 299 299 299 299 299
280 279 279 280 280 281 282 283 283 284 285 285 284 284 283 283 283 283 282 280 280 278 278 277 277 278 279 280 280 280 281 282 285 282 281 281 285 284 283 287 288 290 292 293 295 296 296 296 295 295 296 296 296 296 296 296 296 296 297 297 297 296 296 296 296 296 296 296 296 297 297 298 298 298
279 279 279 280 280 281 280 281 282 283 284 284 284 284 284 283 283 282 281 280 280 279 277 277 277 277 278 278 279 279 280 280 282 284 281 282 282 282 282 283 287 289 290 291 293 294 295 295 295 295 295 296 296 296 296 296 296 296 295 295 295 296 295 296 295 295 295 296 297 298 298 298 298 298
280 279 279 280 280 280 280 281 281 282 282 283 283 283 283 283 283 283 281 280 280 279 275 275 276 276 279 277 279 278 279 279 280 281 281 281 281 281 281 282 282 287 289 290 292 293 294 294 294 294 294 294 295 295 294 295 295 294 294 294 294 295 295 296 295 295 295 296 297 297 297 298 298 299
280 279 280 280 280 281 281 281 281 281 281 282 282 283 284 283 283 283 283 281 280 279 276 275 275 275 277 278 278 278 279 279 280 280 281 280 281 281 282 281 282 285 288 290 291 292 293 293 293 293 293 293 294 295 294 293 293 293 293 293 293 293 293 294 294 295 294 295 296 297 297 297 297 298
279 279 279 280 280 281 281 281 281 282 281 281 282 282 283 283 283 284 283 283 282 281 280 275 275 275 276 277 278 279 279 279 279 280 280 280 280 280 281 281 281 283 286 288 289 290 291 291 292 292 292 292 292 292 293 293 293 292 292 292 292 292 292 292 292 293 293 294 294 295 296 296 297 297
279 279 279 279 279 280 280 280 281 282 281 281 281 281 282 282 283 284 283 283 282 281 281 279 276 276 276 277 277 278 278 278 279 279 279 279 279 279 280 281 281 282 285 286 288 289 289 289 290 291 291 292 291 291 291 291 291 291 291 291 291 291 290 291 291 291 291 291 292 293 294 294 294 294
279 279 279 280 280 280 279 279 280 281 281 282 281 280 281 281 282 282 282 283 282 281 281 281 275 276 275 276 276 277 278 277 277 277 278 278 278 278 277 278 279 279 280 282 284 286 287 288 289 290 290 291 291 291 290 290 290 290 290 289 289 289 289 289 290 290 290 290 290 290 291 291 291 291
279 279 279 279 280 279 280 279 279 280 280 281 281 281 281 280 280 281 281 282 281 281 281 281 277 276 276 276 275 276 277 277 277 276 276 275 277 277 277 276 277 278 278 281 283 284 284 286 286 287 289 290 290 290 290 290 289 288 288 288 288 288 288 288 288 288 288 289 289 289 289 289 290 290
280 279 279 279 279 279 279 279 280 280 280 280 280 282 281 280 280 279 280 280 281 280 280 280 277 276 275 275 275 276 276 276 276 276 276 274 274 274 275 276 276 276 277 277 279 282 284 285 285 286 287 287 288 288 288 288 287 287 288 288 288 288 288 288 288 288 287 287 287 288 288 288 288 288
280 280 280 280 280 281 281 282 282 282 282 280 280 281 281 281 280 279 279 279 279 280 280 279 279 276 275 274 274 274 274 274 274 276 275 274 275 275 275 275 277 277 276 277 277 277 279 280 280 281 281 282 284 285 286 286 286 287 287 287 287 288 287 287 287 287 287 287 287 287 287 287 287 287
279 279 280 281 282 282 283 283 283 284 284 284 282 282 281 281 280 279 278 278 278 279 278 278 279 275 274 274 273 273 274 275 276 275 275 274 275 274 273 274 275 277 276 276 275 276 278 278 278 278 278 279 281 281 282 282 283 284 286 286 287 287 287 287 287 287 287 287 287 287 287 286 287 287
278 279 279 280 280 281 281 282 283 284 284 284 284 284 284 282 281 280 279 278 278 278 277 278 279 277 276 275 274 273 274 275 275 275 275 275 275 272 271 270 274 276 276 275 275 275 277 277 276 277 277 278 278 279 280 282 283 283 284 284 285 286 286 286 286 286 286 286 286 286 286 286 286 286
279 279 279 279 280 280 280 280 281 282 283 284 284 284 284 284 284 284 281 279 278 277 277 277 278 278 277 275 274 273 273 272 274 275 275 275 274 273 272 273 272 274 277 274 274 274 276 276 275 275 276 277 277 277 279 281 282 283 283 283 284 284 284 284 284 285 285 285 285 285 285 285 285 285
280 280 279 279 279 280 281 281 281 281 281 283 284 284 284 284 284 284 285 284 281 280 278 278 278 278 278 276 275 275 274 273 272 273 273 274 274 274 273 273 274 273 276 275 273 272 274 275 274 274 276 275 276 277 280 281 282 282 282 283 283 283 283 283 283 283 284 284 284 285 285 285 285 285
281 281 280 279 279 279 279 280 280 280 280 281 282 282 282 282 282 284 284 284 284 282 281 280 278 279 280 278 278 277 277 274 273 273 273 274 274 274 273 275 274 274 277 274 273 272 273 274 274 273 275 274 275 275 277 280 281 282 282 282 282 282 282 283 283 284 284 284 284 284 284 284 285 285
282 281 281 281 280 279 279 279 280 279 280 280 280 281 281 282 281 281 282 283 283 283 281 281 281 280 280 280 280 279 278 277 277 276 275 275 275 275 274 273 274 274 276 275 274 269 273 273 271 272 273 273 273 274 277 279 280 281 281 281 282 282 282 282 283 283 283 283 283 284 284 284 284 284
282 282 282 281 281 280 279 281 283 282 281 280 280 280 281 281 282 282 283 284 285 283 282 281 281 281 281 282 281 280 279 278 278 277 276 276 274 272 272 271 272 271 274 275 274 271 269 271 271 272 272 273 272 273 273 276 279 280 280 281 281 281 282 282 282 282 282 283 283 283 283 283 283 283
282 282 282 282 281 281 281 282 284 284 283 281 280 280 280 280 280 280 281 285 286 286 286 285 285 284 284 284 284 284 283 280 278 276 274 273 273 272 270 270 270 269 271 272 274 272 268 271 270 270 270 271 271 271 271 272 276 278 279 279 280 280 281 281 281 281 281 282 282 282 283 283 282 282
280 281 283 282 282 281 281 283 284 285 283 281 280 280 279 277 278 279 279 280 283 286 286 286 285 285 284 284 284 284 284 283 280 275 273 274 274 272 272 270 269 269 269 270 274 271 268 271 270 268 267 267 266 269 270 271 272 275 276 277 278 278 278 279 279 280 281 281 281 281 281 280 280 278
278 279 281 282 282 282 282 284 284 285 284 281 280 279 278 277 277 278 278 279 280 281 282 282 283 282 283 283 282 282 283 282 280 277 277 276 273 272 272 271 268 267 268 270 273 270 268 268 269 269 266 264 266 265 268 270 270 270 271 271 271 273 275 277 277 277 277 277 277 277 278 278 278 276
276 278 279 280 282 283 284 284 285 285 285 282 280 279 278 278 277 279 279 279 280 281 281 281 282 281 282 281 281 281 281 281 279 277 277 276 275 273 273 271 270 269 269 269 273 271 266 268 267 270 268 265 263 264 264 266 268 268 269 269 269 271 273 272 271 272 273 274 275 275 276 276 276 274
277 277 278 278 281 282 283 284 284 285 285 284 281 281 280 280 281 281 280 280 281 280 280 280 280 280 280 279 279 279 279 279 278 277 277 276 276 275 273 271 270 270 266 268 275 270 264 266 266 265 265 264 262 262 263 263 265 266 268 268 268 268 268 268 268 268 270 271 272 273 274 275 276 275
277 277 277 277 279 282 283 284 284 285 285 285 283 282 284 284 284 282 281 281 280 280 280 279 278 278 278 277 277 277 277 277 276 276 275 275 275 276 275 273 271 269 266 268 275 269 265 263 266 264 261 261 260 261 263 263 264 265 267 267 267 267 267 266 267 267 267 267 267 268 269 273 274 275
277 277 277 276 279 280 282 283 284 285 285 284 284 285 285 285 284 283 280 279 279 278 277 276 275 275 276 275 274 273 272 272 273 273 273 272 271 268 267 269 271 271 269 270 271 269 268 263 264 264 261 260 261 258 259 261 262 262 263 264 265 266 267 266 265 266 266 266 267 270 271 273 274 274
277 275 273 275 280 280 281 283 284 284 284 284 285 285 285 284 284 280 277 277 276 275 274 273 273 273 274 273 272 271 271 270 270 267 266 265 266 266 265 265 265 267 268 268 268 268 267 263 262 261 263 261 260 259 259 262 262 262 261 264 263 264 265 265 265 265 265 266 266 267 267 267 268 269
276 277 278 279 280 280 281 281 282 283 283 284 284 284 284 283 280 277 276 275 274 273 272 272 272 271 271 272 271 269 267 264 264 263 262 262 261 262 262 261 261 262 262 262 262 263 264 264 262 259 259 259 260 260 261 261 261 260 259 260 260 261 263 265 265 264 265 266 266 267 266 267 267 268
279 280 280 280 281 281 281 280 280 279 279 283 283 283 281 277 276 275 275 273 273 272 271 270 270 269 267 266 266 265 266 266 265 265 264 263 262 263 263 262 260 258 258 260 260 260 261 262 261 260 259 258 260 261 261 260 260 261 261 260 260 262 262 262 263 264 264 264 265 266 267 268 267 268
278 279 280 280 280 280 281 281 282 281 282 281 279 277 276 275 274 273 273 273 273 271 270 269 267 266 265 264 264 265 266 265 264 265 264 264 261 260 260 262 260 259 258 258 259 259 260 261 261 261 260 257 256 258 260 259 259 260 260 260 260 258 260 261 262 263 264 264 265 265 266 267 267 268
275 275 276 276 275 275 275 275 274 274 274 274 273 273 273 272 272 273 274 273 271 270 268 266 264 263 264 264 265 265 265 263 262 263 264 262 260 260 261 260 259 259 258 257 257 258 259 258 259 259 261 259 258 257 257 257 258 259 259 260 260 260 261 260 261 261 263 264 263 262 263 264 265 266
273 273 273 272 272 272 271 271 271 271 270 270 271 271 272 272 271 270 270 269 267 266 265 264 264 264 264 264 264 264 263 262 261 262 262 262 261 259 260 263 261 260 260 258 256 256 256 257 258 258 258 258 259 258 256 256 257 258 258 259 258 259 260 261 260 261 261 260 260 261 261 262 263 264
271 270 269 269 269 270 270 269 269 269 269 269 269 270 271 270 269 269 268 267 266 265 265 265 264 264 264 263 263 263 262 260 261 262 264 260 261 260 260 260 259 258 260 260 258 257 256 255 255 256 256 257 258 258 259 259 259 259 259 259 259 258 260 260 260 261 260 260 260 259 259 260 262 263
269 269 268 268 268 268 268 268 268 268 268 268 268 267 267 268 268 266 265 265 264 264 264 264 264 264 264 263 263 262 261 260 260 260 259 260 261 261 261 260 258 257 258 258 257 256 255 255 255 254 255 252 254 257 261 261 259 260 258 259 259 259 259 260 259 259 259 259 257 257 258 259 260 261
267 267 267 266 266 266 266 266 267 267 267 267 267 266 266 265 265 265 264 264 264 264 264 264 263 264 264 263 263 262 261 260 260 260 259 259 259 258 258 259 258 258 257 258 258 255 255 256 257 255 255 253 253 255 256 264 264 260 258 257 257 257 259 258 258 257 257 258 258 257 257 257 258 259
266 265 265 265 265 265 265 265 265 266 266 266 266 266 265 264 262 262 263 264 263 263 263 263 263 263 263 263 262 261 260 260 259 259 259 258 258 257 258 256 257 256 256 256 255 255 255 254 255 256 254 252 252 255 256 253 262 266 259 258 258 256 257 256 256 257 258 258 258 258 258 258 258 260
264 264 264 264 264 265 265 264 264 264 265 264 264 263 262 261 261 261 262 263 262 263 264 263 262 262 262 262 261 260 260 259 259 259 258 257 257 256 257 257 256 256 257 255 254 255 255 256 256 256 257 256 255 255 255 254 253 260 266 261 259 259 257 256 257 257 258 258 258 258 258 258 259 260
262 264 264 264 263 262 262 262 263 263 263 263 263 262 260 259 259 259 260 260 261 262 263 262 262 262 261 261 261 260 259 258 258 258 257 257 258 258 256 256 255 254 254 255 253 253 253 254 256 256 257 257 257 255 255 255 257 255 260 268 261 258 259 258 257 258 257 257 258 259 259 261 263 266
262 262 262 262 262 262 262 261 262 263 263 262 261 259 259 258 258 258 258 258 259 259 260 260 260 260 260 260 260 259 259 259 259 258 258 258 257 257 257 256 257 256 254 256 255 255 254 255 256 257 257 258 258 255 253 256 257 257 258 261 266 264 261 257 258 257 257 258 258 258 258 259 258 258
261 262 261 262 262 261 261 261 262 264 264 262 260 260 257 257 258 257 256 257 257 258 258 258 259 259 259 259 258 259 258 257 257 257 257 257 257 257 257 256 255 254 256 256 256 255 256 258 258 260 257 254 253 252 254 254 256 258 258 258 263 266 266 264 260 258 258 258 258 258 258 257 257 257
263 263 262 263 262 261 262 263 263 263 262 261 259 257 256 255 254 260 258 258 256 255 256 257 257 257 257 258 258 257 259 258 257 257 257 257 257 256 256 256 256 254 256 257 257 258 256 254 257 257 254 253 253 253 254 255 256 257 257 257 255 263 265 266 267 265 263 261 259 258 258 258 256 255
263 263 263 263 263 262 262 263 263 262 261 260 259 257 256 254 255 256 253 254 255 255 256 256 256 257 257 257 257 258 258 258 257 257 256 257 257 257 256 256 257 257 257 258 257 254 253 252 251 251 250 251 252 252 254 255 255 255 255 255 256 255 256 262 265 266 265 266 266 263 261 258 256 254
262 262 262 263 263 262 262 262 263 263 262 262 260 259 258 257 256 255 255 256 256 256 256 257 256 257 257 257 257 256 257 258 258 257 257 257 257 258 258 257 257 256 256 256 255 253 251 251 250 249 249 251 250 250 253 253 253 254 254 254 254 252 254 253 253 259 262 264 265 266 267 267 266 265
261 261 262 261 261 262 262 262 261 262 262 261 261 260 259 258 257 256 256 256 257 257 257 257 257 256 256 256 257 257 257 259 258 257 257 256 256 257 256 257 256 255 255 255 253 254 251 249 248 248 249 250 249 251 253 253 253 253 253 252 252 253 253 252 253 253 253 253 259 263 265 266 267 267
Wind_Speed
7 7 8 7 7 6 5 5 5 5 5 6 7 7 9 8 9 7 7 9 9 5 8 7 6 10 9 9 8 9 10 10 12 11 11 10 9 14 21 23 24 24 24 24 25 24 23 22 22 22 21 21 20 18 16 16 15 14 10 11 11 10 11 18 18 14 16 17 17 14 16 18 10 14
7 7 7 6 7 7 7 7 7 6 6 6 7 7 7 7 9 8 9 9 7 4 6 8 5 6 9 8 7 8 10 12 14 11 11 10 10 14 19 21 23 24 23 23 25 25 24 22 22 21 21 21 22 22 21 19 18 16 14 12 9 10 9 8 10 16 17 16 16 14 15 16 15 15
6 6 6 6 6 6 7 7 7 7 7 6 6 7 7 8 9 9 8 10 5 7 7 7 4 6 10 9 9 8 8 10 13 11 9 10 10 13 14 19 21 23 23 23 25 24 24 23 21 21 21 21 21 22 22 21 20 18 17 14 13 12 10 10 11 11 13 14 19 21 19 18 20 19
4 4 5 5 6 6 5 6 6 7 7 8 8 7 7 7 8 7 8 10 11 6 7 7 6 8 9 9 10 10 7 7 14 9 9 7 9 9 9 15 20 21 22 22 23 25 25 24 24 22 21 20 20 20 20 20 19 19 17 16 15 14 13 14 14 15 16 16 16 18 20 21 21 20
5 6 6 7 7 6 6 6 7 7 8 8 8 8 8 8 7 8 8 10 11 4 3 4 6 7 6 6 9 9 8 7 8 8 8 8 8 8 8 8 16 20 22 22 23 24 25 24 24 22 22 22 22 21 21 20 20 19 17 17 17 17 17 18 19 19 20 21 21 22 22 22 22 21
6 6 7 7 7 5 6 6 7 7 7 7 8 8 8 8 9 9 8 9 10 9 3 4 2 4 6 8 7 10 10 9 8 9 8 7 8 8 8 8 8 17 20 21 21 23 24 24 24 23 22 21 22 23 22 22 22 21 21 21 20 22 23 23 23 23 23 24 24 23 23 22 22 22
7 7 7 7 6 5 6 7 7 6 7 7 8 9 8 9 9 9 10 9 10 10 6 6 5 6 7 9 8 9 8 8 9 10 10 9 7 7 8 8 7 12 19 22 21 20 22 23 23 24 23 22 23 23 23 22 22 22 22 20 19 21 22 23 23 23 23 23 23 23 23 23 22 22
7 8 7 7 6 7 7 8 8 8 7 7 8 9 8 9 10 9 8 10 9 8 8 5 7 7 8 6 4 6 6 7 8 9 7 6 7 7 7 8 7 8 16 20 21 20 19 22 23 24 25 24 24 22 21 22 21 21 19 18 19 21 22 22 22 22 22 23 22 23 23 22 22 22
9 8 8 7 7 7 8 7 7 7 9 9 8 9 8 8 8 8 8 8 8 8 8 5 4 4 5 5 4 6 8 6 6 5 7 8 8 7 7 7 6 8 15 17 19 18 18 18 19 23 24 23 24 23 23 22 21 17 18 19 19 21 22 22 23 22 22 22 22 21 22 22 22 21
8 8 9 8 9 9 10 8 7 8 9 9 9 9 9 8 8 8 8 8 8 9 9 6 4 3 6 5 4 6 8 8 7 5 5 5 6 7 7 6 5 4 5 6 8 12 14 16 18 20 22 24 24 25 24 23 23 19 17 21 22 21 21 21 21 22 21 22 21 21 21 22 22 22
8 9 9 9 10 10 9 9 8 8 9 9 10 10 10 9 8 8 8 8 9 9 9 6 6 6 5 5 7 4 5 7 7 9 7 7 7 7 8 7 4 3 5 5 8 8 7 9 9 15 21 23 26 25 21 22 23 18 20 22 22 21 20 21 21 22 21 22 22 21 21 21 22 22
9 9 10 10 10 11 10 9 9 9 9 8 9 9 10 10 10 9 8 8 8 9 9 8 6 6 6 4 1 3 5 5 5 7 8 11 8 7 6 7 8 6 6 7 6 7 7 8 10 13 14 18 18 18 19 21 19 18 22 22 20 20 20 19 20 21 21 21 22 21 21 21 22 21
8 8 9 9 10 11 14 16 14 12 11 9 9 8 8 9 10 9 8 8 8 8 8 8 6 6 6 6 7 7 8 11 13 10 7 5 5 7 7 6 6 7 8 7 6 7 7 7 6 5 6 7 12 15 20 14 16 16 20 21 20 19 19 19 20 20 21 22 21 21 21 21 21 21
9 9 9 9 14 15 16 16 17 17 17 16 12 9 9 9 9 10 10 9 9 9 9 9 8 7 8 8 9 9 10 10 5 5 7 9 6 5 3 3 5 6 8 7 8 8 6 6 6 6 7 7 7 6 6 7 9 10 14 20 22 21 21 21 21 21 21 22 21 21 20 20 21 22
10 9 10 9 11 13 14 14 18 18 19 18 18 17 15 12 11 9 10 10 10 10 9 9 9 9 10 10 9 10 8 6 8 9 9 8 5 7 8 9 5 7 8 8 8 7 6 7 8 8 8 7 6 7 7 10 11 11 12 15 18 20 21 21 21 21 21 21 21 21 21 21 21 21
9 10 10 9 9 9 10 10 12 16 19 19 19 18 18 17 18 17 11 9 8 9 9 9 10 10 11 9 8 7 6 7 7 6 6 7 9 8 9 9 9 5 10 8 7 8 5 6 7 8 8 7 6 6 8 12 14 14 16 17 17 18 19 20 20 20 20 20 19 19 18 18 18 19
11 10 9 9 9 9 14 13 10 10 12 17 20 19 19 19 19 19 21 18 13 11 11 11 11 11 10 9 9 10 9 6 7 7 8 8 8 9 10 10 7 3 10 8 6 8 6 7 7 8 7 5 6 6 11 15 15 17 17 18 18 19 19 19 19 19 18 18 18 18 18 18 19 19
12 12 11 11 10 9 10 10 11 11 10 10 11 12 12 11 14 18 20 21 20 15 12 12 12 12 10 10 9 9 9 10 10 10 10 9 8 9 11 7 3 3 8 11 8 5 5 6 8 9 7 4 5 5 9 15 16 17 17 18 18 19 18 18 18 18 18 18 18 18 19 19 19 20
13 14 13 13 13 11 11 11 13 11 11 10 10 11 12 13 12 12 13 13 12 11 10 10 11 10 10 9 7 10 11 13 11 11 12 12 11 7 2 5 4 4 6 9 8 9 7 4 6 9 5 5 3 3 8 14 15 16 17 17 17 17 17 18 18 18 18 17 17 17 18 19 19 20
11 12 13 13 13 13 12 15 22 19 12 11 12 12 11 11 11 11 14 16 15 12 10 10 10 8 8 10 9 10 12 11 10 8 4 4 5 7 7 7 4 6 4 8 9 6 3 5 9 7 3 4 3 3 2 7 12 13 15 16 17 17 17 17 16 16 17 17 18 18 18 18 19 19
10 11 12 12 12 13 12 17 22 22 19 11 13 13 12 11 10 10 9 17 21 21 21 20 17 15 15 16 15 15 17 12 9 8 8 9 9 8 8 7 5 6 4 2 6 4 3 3 5 5 2 2 2 2 3 4 8 12 15 16 17 16 15 15 15 15 15 16 17 17 17 17 17 19
8 10 15 15 13 13 14 21 21 23 19 13 13 12 12 12 12 10 7 7 11 21 22 22 19 18 17 17 18 19 19 18 14 11 12 10 9 10 10 9 6 4 4 6 5 6 4 4 3 4 1 2 2 2 3 4 5 9 9 11 12 12 13 14 14 15 15 14 13 13 15 15 15 10
8 9 11 16 15 14 16 22 22 24 19 13 12 12 11 12 12 10 8 10 10 10 11 12 13 12 16 14 12 12 19 19 17 13 12 9 11 11 9 7 5 3 5 6 5 8 4 7 4 6 2 2 3 1 1 1 1 1 2 3 3 7 8 9 7 7 6 7 9 11 12 13 12 6
8 9 9 12 19 22 22 21 23 23 24 15 12 11 11 12 13 9 10 11 11 11 12 11 12 11 9 9 8 8 10 12 14 12 10 10 11 10 9 9 10 10 6 6 8 9 2 4 5 4 4 3 3 1 0 1 1 1 3 2 3 4 4 3 5 8 9 9 10 11 12 13 12 6
9 8 8 7 12 19 21 23 24 25 25 23 13 13 12 12 12 11 10 12 15 11 12 12 10 9 8 9 8 8 9 9 9 9 9 8 9 10 9 9 9 7 2 5 12 6 5 5 6 4 3 2 1 1 2 1 3 2 3 2 2 2 1 1 1 2 4 8 10 12 13 13 14 10
9 9 8 7 9 14 17 22 26 26 24 25 15 13 16 19 18 12 10 10 10 10 9 8 9 8 9 9 9 8 8 7 7 8 7 7 8 8 9 11 11 8 5 6 16 8 7 3 8 7 3 4 2 1 2 3 3 1 1 2 3 2 1 1 2 2 3 4 4 6 8 12 13 14
9 7 7 8 11 15 15 17 23 25 28 22 16 19 20 19 19 14 8 7 8 7 7 8 8 9 9 9 8 8 7 6 7 7 6 5 5 5 5 4 2 5 5 8 8 7 6 4 5 9 7 4 4 1 1 3 4 0 1 2 2 2 2 2 3 4 4 4 5 10 11 12 13 14
3 5 5 6 11 13 14 15 17 22 21 13 17 23 20 19 17 8 7 8 8 7 7 7 7 8 7 8 8 8 7 7 7 7 7 7 7 8 7 8 8 8 9 8 7 6 6 6 6 4 7 8 6 5 4 3 3 2 3 1 1 2 2 3 4 4 4 4 5 5 5 5 5 6
2 5 7 8 11 12 13 14 14 10 15 20 16 17 19 14 7 8 8 8 8 8 8 8 7 7 6 6 6 7 9 10 11 11 10 10 10 10 10 10 8 7 6 5 5 5 5 6 7 5 5 5 7 5 4 4 3 3 3 1 3 2 2 2 4 4 4 4 4 5 5 5 6 5
2 5 8 11 12 12 10 7 5 4 3 11 14 11 10 9 8 8 8 7 9 8 7 7 7 6 6 6 7 8 9 10 8 9 8 8 6 6 7 7 6 5 5 4 4 4 4 5 7 7 6 4 5 6 6 4 6 4 4 5 5 4 4 4 3 3 4 3 5 5 6 5 6 6
2 4 2 3 6 7 9 7 6 5 6 5 7 8 7 7 7 7 8 9 9 8 8 6 6 6 6 7 9 8 8 8 6 6 9 8 6 6 5 7 6 4 2 3 2 2 3 5 6 8 7 4 2 5 3 3 7 6 4 4 3 5 1 1 1 2 3 5 4 5 6 6 6 6
5 5 7 9 7 8 9 8 8 8 8 7 7 7 6 6 6 8 9 9 6 6 7 7 7 7 7 8 7 7 7 7 6 5 7 8 6 5 6 5 4 4 4 1 2 1 2 2 5 4 5 7 7 4 3 5 7 7 5 4 5 6 4 6 6 5 4 4 4 5 5 5 6 6
6 6 7 7 7 8 8 8 8 8 8 7 7 8 7 7 7 7 6 7 7 7 9 9 9 8 7 6 6 7 7 6 6 4 6 5 8 4 3 5 6 6 6 4 3 1 1 1 1 2 2 3 2 7 7 4 8 6 7 6 4 6 5 5 5 6 3 2 6 6 7 6 6 7
6 6 7 6 6 6 7 7 7 7 7 7 7 5 7 7 6 6 6 6 7 7 8 8 8 8 8 8 7 7 8 6 5 4 6 6 6 6 5 6 5 4 6 6 6 5 3 2 2 2 2 1 2 4 6 6 7 5 6 5 5 7 7 3 5 6 5 6 6 7 7 7 6 6
6 5 6 5 6 6 6 6 6 6 7 7 7 6 5 5 6 6 6 6 6 7 8 6 7 8 9 9 8 8 8 8 6 4 4 5 5 6 7 6 5 5 6 6 6 5 5 5 5 4 1 1 2 4 11 11 6 8 3 5 6 7 8 5 4 5 6 6 5 6 8 8 8 6
6 5 5 5 5 4 6 5 5 5 6 5 6 6 6 5 4 6 6 5 7 7 7 7 7 7 7 7 7 7 7 7 7 6 6 5 5 5 4 5 5 5 5 6 6 5 5 7 6 6 5 1 1 3 5 14 17 6 6 5 3 5 6 5 4 4 5 5 6 6 8 10 8 5
5 5 5 5 4 4 5 4 5 5 5 5 5 5 6 6 4 5 4 5 6 6 6 7 7 6 6 6 5 5 6 8 7 6 6 5 5 5 6 4 5 5 6 5 4 5 5 6 6 6 6 5 4 7 7 2 9 15 7 8 6 4 5 3 3 5 6 6 7 6 9 8 9 6
4 4 4 4 4 4 4 4 5 5 5 5 5 5 5 5 5 5 5 6 6 6 6 6 6 6 6 5 7 6 5 4 6 7 6 6 7 6 6 7 6 6 6 5 4 5 5 6 7 6 7 7 6 6 4 3 2 6 16 10 7 6 2 3 5 7 8 4 7 8 6 8 10 8
5 4 4 4 4 4 5 4 4 5 4 4 5 5 6 5 5 5 5 5 5 6 6 6 6 6 7 7 6 8 8 6 6 6 7 6 7 7 6 6 6 4 5 4 3 4 3 5 7 7 8 7 8 6 6 3 5 2 4 13 8 5 6 5 8 8 7 7 7 6 7 9 11 17
4 3 4 4 4 4 4 4 4 4 4 4 4 5 6 6 5 5 5 5 5 4 5 6 6 6 5 6 6 5 6 8 9 8 8 7 6 6 6 6 6 6 6 6 5 6 6 6 7 9 9 9 3 1 2 2 4 3 5 9 17 12 9 5 7 7 8 7 6 6 9 6 8 4
3 4 3 3 4 4 5 3 4 4 4 4 4 4 4 4 5 5 4 5 5 6 5 5 6 6 6 6 6 7 7 5 5 6 6 6 6 6 6 6 5 5 7 7 7 6 9 9 5 4 3 2 2 3 2 3 8 7 5 6 11 18 19 15 10 8 8 5 5 7 9 9 8 8
3 3 2 3 4 3 4 4 4 4 4 4 4 4 4 3 3 4 3 3 4 4 5 5 5 6 5 6 6 6 7 8 7 7 6 7 7 6 6 6 7 6 6 8 9 9 1 3 4 5 5 4 2 2 7 8 10 9 6 3 3 7 10 14 17 15 10 7 6 7 7 7 3 7
2 3 3 3 3 4 4 4 4 4 4 4 4 4 5 4 4 5 4 5 5 5 6 6 6 6 6 6 6 7 6 7 7 7 7 7 7 8 8 8 8 8 8 7 2 2 5 4 3 4 4 4 4 6 8 9 7 7 7 7 7 5 5 11 15 17 18 20 18 14 9 7 3 7
2 2 2 3 4 4 3 4 4 4 4 4 4 4 4 5 5 5 5 5 6 6 5 6 6 6 6 6 6 6 6 6 7 7 8 8 8 8 8 7 7 6 6 5 3 2 2 1 1 3 5 6 5 5 9 7 8 8 7 7 5 5 9 6 5 10 14 17 21 22 25 25 22 22
1 2 3 2 3 3 4 4 4 4 4 4 4 4 4 4 5 5 4 5 5 5 5 5 6 5 5 6 6 7 6 5 6 6 6 6 6 6 6 6 6 6 6 5 4 4 3 3 1 1 3 4 4 6 8 7 8 6 7 6 9 7 7 4 6 8 8 8 13 21 23 24 24 25
Wind_Direction
197 193 192 194 205 210 206 217 236 243 225 212 207 201 204 202 224 219 221 227 231 220 188 217 220 206 202 202 197 197 205 202 193 201 205 204 205 213 218 222 225 226 227 229 226 223 222 222 222 225 233 239 238 234 235 237 243 248 254 261 280 326 271 233 228 242 244 242 242 257 264 249 275 290
189 193 194 190 199 198 196 202 201 214 224 221 214 213 210 207 217 223 231 243 204 213 200 209 203 190 202 202 197 202 208 201 192 202 203 204 206 206 212 219 223 227 227 228 226 223 223 223 221 221 224 229 234 237 236 234 235 237 241 243 267 271 275 299 278 247 241 249 251 255 264 256 253 272
196 196 199 198 205 198 198 202 203 203 208 218 222 221 211 212 215 223 230 249 226 179 206 224 194 173 201 198 199 204 207 202 197 202 204 208 200 198 210 216 222 226 228 229 227 225 222 221 222 220 222 224 227 232 233 234 233 234 235 239 244 248 258 263 259 272 272 262 252 247 249 252 256 258
201 205 213 210 209 210 203 207 204 205 208 207 215 217 218 217 214 216 229 235 249 183 198 202 199 188 193 194 199 207 205 199 199 206 205 200 185 200 209 214 219 224 228 231 229 227 225 223 221 221 221 223 225 227 229 229 231 233 234 236 236 238 242 243 246 249 248 247 248 245 243 242 245 247
201 206 215 222 220 211 206 209 206 206 205 206 210 212 215 218 212 214 220 232 247 226 217 191 195 199 168 197 203 205 196 189 199 199 203 193 197 200 206 207 216 220 225 230 231 228 227 225 224 222 221 223 224 223 224 226 225 226 230 232 233 234 234 234 235 235 236 236 237 238 239 239 240 240
209 207 212 220 221 212 216 218 217 205 205 204 205 210 211 214 216 207 214 228 237 239 179 209 196 158 190 203 199 197 192 196 188 196 196 196 196 200 201 204 210 217 221 225 230 230 228 228 228 226 225 225 225 225 224 226 226 226 225 225 228 232 232 234 234 234 236 239 239 239 240 241 242 243
212 210 212 217 214 210 216 227 227 221 213 204 208 212 207 213 216 210 209 217 231 236 224 187 175 181 193 204 198 199 204 192 185 193 197 195 196 203 203 206 211 211 218 221 225 231 231 230 230 230 228 227 227 227 225 223 226 229 228 229 232 234 237 239 239 239 240 242 243 244 244 243 243 244
218 216 216 215 206 209 214 217 214 220 225 217 213 215 212 208 212 213 209 214 226 229 228 186 188 192 183 208 203 189 195 183 188 197 196 181 192 202 207 210 211 208 215 220 222 225 230 233 232 232 231 230 228 229 229 226 227 226 230 233 234 234 235 238 242 243 242 242 242 244 246 247 247 247
214 216 215 214 204 205 217 217 210 213 221 226 219 215 213 209 207 206 205 213 219 229 230 206 182 178 190 191 168 174 177 186 190 182 187 188 191 195 205 210 209 198 209 217 220 221 223 229 235 236 234 232 230 229 229 228 229 228 231 233 235 235 236 237 238 241 243 246 246 246 248 249 250 252
213 215 216 214 207 205 207 213 212 209 213 218 224 221 214 209 205 202 199 203 211 221 230 210 147 189 178 176 177 187 178 176 179 186 189 183 186 188 197 208 205 191 190 200 219 222 221 225 231 237 236 232 231 229 228 231 231 231 233 234 233 234 236 239 242 243 244 244 244 246 248 250 251 251
214 213 215 214 211 211 209 210 208 208 213 213 217 221 220 208 201 198 198 197 204 213 220 211 176 179 209 188 179 181 180 188 186 183 180 205 204 197 194 198 189 184 196 213 214 213 209 209 218 232 236 235 231 231 229 230 232 232 232 232 233 234 235 236 239 241 243 243 245 247 248 249 250 250
219 218 216 215 213 212 213 212 212 205 212 209 219 218 216 211 200 198 195 195 200 210 214 209 183 184 180 185 115 120 150 179 214 210 194 201 193 191 199 196 184 188 189 198 206 215 213 213 216 222 234 239 241 242 239 236 238 238 235 233 231 231 232 234 236 239 242 245 246 247 248 248 248 250
230 224 219 219 220 217 215 211 210 210 207 203 213 214 214 218 205 196 191 189 195 202 209 214 190 173 180 184 170 169 182 192 202 201 186 205 197 188 192 205 198 186 190 202 196 208 205 208 209 205 214 228 235 239 236 236 239 241 239 237 237 236 236 236 238 240 242 243 244 244 245 247 249 250
238 234 230 224 218 219 219 217 216 216 215 212 210 206 199 209 214 200 189 188 191 195 202 208 196 183 195 188 187 187 198 200 184 142 176 205 193 141 185 219 203 189 187 191 203 208 198 198 211 207 216 214 213 217 230 232 231 239 245 241 239 240 242 243 242 242 242 241 242 243 244 246 247 248
236 235 233 232 226 221 219 219 220 219 221 221 218 213 206 194 198 211 201 193 187 191 200 202 202 199 202 199 190 198 193 182 184 186 192 196 172 170 183 214 211 194 179 196 204 213 188 186 206 211 218 214 207 207 215 219 224 225 234 241 247 246 245 243 242 241 241 242 243 243 243 244 245 247
237 233 229 228 227 225 221 216 218 220 221 223 223 218 215 208 202 203 201 196 194 195 197 200 204 201 208 196 182 191 177 184 188 192 183 187 190 189 204 214 216 193 178 187 201 222 178 187 208 216 216 209 205 208 208 216 226 232 235 238 239 241 243 244 244 243 242 242 242 243 244 244 245 246
237 236 233 232 227 225 222 220 216 213 215 219 220 222 219 215 212 213 212 208 199 194 199 201 205 207 205 190 187 187 182 161 174 184 192 195 199 203 209 216 207 131 166 180 205 222 194 177 211 224 218 180 186 205 216 221 228 234 236 237 240 243 243 242 241 242 242 244 244 246 246 247 247 248
231 229 228 228 226 220 217 216 216 214 210 210 213 218 219 217 217 217 215 215 211 202 203 203 208 206 195 200 190 171 157 164 187 189 201 199 196 202 217 213 134 154 167 181 190 221 204 184 204 224 218 136 198 167 210 221 228 232 236 241 243 243 242 242 243 245 247 249 250 249 249 249 250 250
227 222 223 223 223 217 212 212 213 208 208 205 208 210 212 212 209 210 214 216 215 207 206 211 216 205 193 203 177 157 170 185 193 189 195 194 197 190 88 78 146 159 182 175 180 215 210 144 186 228 186 123 179 180 209 221 227 235 242 244 243 243 244 246 249 250 251 252 252 252 251 251 252 251
239 230 222 221 223 220 216 213 214 212 207 204 207 211 214 214 210 211 213 210 210 210 206 208 214 213 203 201 190 175 177 185 188 187 161 135 140 142 180 188 176 174 200 181 183 200 161 185 192 213 127 143 174 188 169 220 227 233 239 243 246 250 251 250 251 252 253 256 255 255 254 254 255 256
251 243 229 220 220 219 220 219 216 212 203 205 208 210 211 210 210 212 207 210 213 215 216 216 208 203 199 203 201 191 183 182 166 147 156 183 171 175 192 199 168 200 157 189 196 162 160 198 162 164 73 154 200 185 191 203 228 238 244 248 249 250 251 254 257 259 260 257 256 255 257 257 259 260
255 252 245 229 217 215 217 222 216 212 204 200 203 206 207 210 213 215 197 204 214 218 218 216 208 203 200 198 198 196 191 181 158 166 188 187 167 192 198 196 186 155 161 199 158 155 195 135 117 137 302 43 303 227 211 217 226 241 247 250 257 266 267 266 261 257 253 255 260 266 268 269 271 273
239 238 247 245 233 218 219 218 214 213 205 202 198 198 203 212 215 212 191 198 203 210 217 223 222 210 204 201 197 195 191 177 173 183 191 165 175 194 197 173 120 150 235 215 173 177 196 136 195 136 121 259 264 123 295 260 205 199 188 224 249 254 261 259 276 283 292 281 279 276 278 275 275 277
237 235 233 237 243 235 222 216 213 212 206 207 200 197 205 209 214 201 195 198 195 201 206 212 210 207 194 190 187 183 185 184 186 187 183 175 183 190 188 179 179 197 189 168 179 177 115 145 167 165 168 154 250 249 56 267 209 197 201 200 193 243 249 303 316 308 299 296 284 281 281 280 276 267
238 228 223 226 233 241 234 217 214 214 211 208 202 202 209 208 210 193 198 200 195 199 202 202 199 195 185 184 184 185 186 185 181 183 184 179 183 183 183 179 190 202 164 207 172 149 163 166 162 134 208 130 233 50 245 169 295 218 236 214 232 232 178 218 272 283 296 287 289 288 286 282 276 268
232 220 213 215 231 240 242 223 209 214 214 210 203 205 209 216 214 199 195 194 195 200 199 194 186 182 181 178 179 178 181 175 170 171 168 170 182 190 186 182 180 184 188 194 175 154 127 165 174 155 165 154 239 117 262 274 213 222 248 254 240 257 201 222 223 244 263 271 276 274 270 272 272 270
226 204 199 206 224 237 241 239 215 211 216 215 211 209 211 212 210 202 182 178 186 185 180 175 177 176 172 168 168 163 156 147 149 150 144 138 128 92 61 57 149 156 122 147 156 151 147 150 162 165 173 165 156 55 235 249 274 178 301 219 209 227 226 222 244 244 250 261 262 272 279 277 279 278
187 165 194 201 221 238 243 246 235 214 211 211 213 214 210 211 210 175 154 161 169 165 161 168 168 172 175 162 160 162 152 147 129 108 97 89 92 94 83 76 80 101 125 132 145 157 145 132 163 172 154 160 167 176 225 247 249 236 249 294 263 253 241 232 244 241 248 254 258 261 250 262 255 269
161 195 202 212 225 234 234 236 247 238 217 211 210 212 212 199 147 154 157 156 150 161 169 174 168 162 163 157 138 115 111 104 96 92 64 60 68 75 78 69 66 76 87 97 111 131 140 142 155 145 131 163 168 209 185 226 163 237 201 253 283 222 194 209 221 245 256 251 257 255 253 254 265 258
164 218 226 228 229 231 232 219 223 216 178 207 209 192 147 126 149 143 150 147 159 163 162 155 155 142 117 107 117 120 125 125 129 127 119 113 96 107 114 95 56 29 38 50 79 100 113 128 145 150 145 161 189 196 209 228 259 234 210 223 257 296 250 225 212 235 239 246 248 256 255 255 259 265
43 65 88 192 216 204 215 199 168 143 152 142 109 104 120 127 131 148 152 165 157 151 139 131 113 111 109 108 118 135 135 125 124 132 134 125 125 120 118 120 121 103 23 14 28 58 105 128 144 151 155 172 189 223 202 179 251 252 233 214 191 225 234 112 229 236 262 264 267 266 269 269 263 256
27 57 63 65 63 77 77 78 69 68 72 88 95 93 90 94 102 110 107 87 86 91 103 101 104 105 126 133 134 127 123 124 124 133 131 132 128 129 129 111 140 124 115 63 39 41 76 138 159 174 167 160 192 204 159 204 234 243 248 210 216 251 254 256 264 266 253 266 279 270 264 265 270 269
34 33 49 54 56 66 79 74 76 75 82 71 78 94 98 101 103 105 112 118 117 129 124 133 136 138 130 125 125 125 119 126 130 126 108 110 126 118 112 152 149 153 154 160 137 107 102 91 72 141 156 184 179 156 157 208 241 228 240 233 205 245 248 234 230 253 264 264 262 268 268 258 250 259
58 52 55 44 51 62 74 84 88 93 98 100 96 86 101 101 104 104 104 116 128 129 133 134 136 139 138 136 145 136 129 118 122 145 140 134 138 136 154 152 168 169 155 156 156 157 131 86 84 56 35 321 298 215 202 211 244 225 220 234 226 252 251 211 226 230 230 226 251 268 268 264 252 245
42 49 65 50 57 57 69 77 83 93 97 101 102 94 85 80 101 105 105 120 122 123 126 133 135 143 147 150 150 148 144 142 138 113 83 120 145 154 158 162 160 161 160 150 156 155 140 137 130 100 62 1 344 278 221 216 232 239 242 237 226 237 260 235 220 229 215 235 198 246 267 269 261 242
42 47 67 68 54 63 76 73 79 85 98 99 108 114 106 91 81 110 121 131 125 129 130 137 144 147 150 148 149 140 139 134 139 138 133 140 145 128 140 165 160 165 164 165 158 158 139 145 149 144 169 207 67 297 313 217 207 208 196 253 227 217 245 247 245 236 232 233 218 229 254 263 263 240
67 52 61 73 69 69 89 79 84 84 87 101 95 96 112 115 92 91 107 113 115 129 138 137 144 144 136 136 130 132 139 144 142 151 149 149 139 145 153 160 164 165 166 183 153 154 142 145 163 153 148 172 201 237 240 332 225 216 187 228 252 231 241 255 263 267 246 245 263 236 251 259 265 256
86 83 82 72 82 87 88 93 96 95 92 91 96 90 84 91 99 104 112 116 123 126 133 135 135 136 139 142 142 140 140 137 139 149 155 150 152 165 178 176 177 178 176 160 159 170 167 152 166 177 170 188 204 237 271 292 354 245 210 208 231 249 202 257 277 268 275 234 240 257 256 261 264 264
83 94 94 101 90 97 105 103 108 111 107 108 110 117 112 104 105 115 119 126 133 136 136 140 150 153 152 156 155 152 150 147 153 164 158 174 175 173 174 172 170 180 149 172 167 162 159 173 184 182 190 186 201 213 192 197 230 276 249 217 205 235 247 218 257 266 265 271 263 252 244 248 269 276
66 83 93 100 98 93 94 96 98 106 110 109 109 117 130 133 137 134 133 135 137 139 140 150 146 140 150 157 153 146 153 166 170 171 175 175 181 175 173 175 178 165 173 186 186 203 197 212 198 197 198 209 211 134 160 231 268 228 252 258 251 249 250 228 236 244 265 249 259 275 280 285 281 276
88 83 94 103 103 106 112 106 108 112 112 110 110 110 106 127 135 145 146 146 141 143 140 147 156 160 160 159 162 159 166 175 165 167 167 167 172 180 174 160 166 170 176 201 208 206 216 221 209 176 150 112 102 65 16 319 270 258 231 232 230 239 242 239 234 223 245 251 256 269 277 279 287 295
101 99 95 110 123 119 117 116 115 109 110 114 115 116 114 108 118 128 127 128 130 133 139 152 162 159 161 164 167 167 168 174 175 173 176 173 175 176 173 172 182 179 187 204 207 217 192 94 128 136 123 120 95 155 235 237 255 267 265 231 233 250 261 266 262 257 252 241 245 265 273 285 282 280
88 123 117 109 105 123 122 125 122 118 116 111 114 122 123 124 137 134 133 146 156 156 161 164 166 165 168 170 173 178 171 175 178 175 175 182 179 176 186 198 200 192 200 217 177 116 127 115 98 114 112 144 196 177 232 240 246 265 278 287 278 282 268 264 269 272 272 268 262 256 239 240 253 263
117 116 126 130 132 130 134 135 136 129 133 134 136 141 152 155 166 174 169 167 171 179 174 169 173 172 175 175 169 175 189 181 174 177 181 187 191 192 194 197 199 202 202 212 201 181 142 145 157 145 157 205 193 190 240 252 263 254 265 271 286 288 280 279 271 268 272 270 266 261 258 253 249 251
118 126 137 132 132 132 141 145 142 144 141 144 154 169 168 170 171 172 181 182 182 177 173 178 177 179 168 166 168 186 198 181 176 188 181 180 192 200 198 190 192 199 211 203 194 225 188 202 220 147 205 222 190 211 234 230 248 260 255 255 264 259 261 273 280 280 264 268 250 254 259 259 260 261